Showing default

POSAT 1, 22829

Orbit data source: Space-Track

POSAT 1, 22829 is a payload satellite owned by INETI (PT) in SSO that was launched on Sun, 26 Sep 1993 UTC via an ARIANE 40 launch vehicle from the French Guiana (FRGUI). Payload-class satellites include a variety of spacecraft equipped with specific instruments for various scientific and technological missions. These include communications satellites like Starlink; space stations such as the ISS; scientific satellites like the Hubble; Earth observation satellites from companies like Planet Labs, Umbra, and HawkEye 360; GPS; miniature CubeSats for education and research; and military/defense satellites.

Loading next visibility...
Identifier
22829, 1993-061G
Orbit
SSO
Country
Flag of PTPT / POR
Related business
Manufacturer
SSTL
Mission
Non-operational Amateur Communications
Bus & Motor
UOSAT, Unknown motor
Mass
50 kg wet, 50 kg dry
Launch date (UTC)
1993-09-26 (33 years ago)
Launch vehicle
ARIANE 40
Launch site
French Guiana (FRGUI)
Object type
Payload
Rocket body
Debris
Shape & HBR
Box + 1 Ant, 3.3 m
Radar Cross Section
0.597 m², Medium (>0.1 m² and < 1m²)

Expand to show TLE details & history
Last TLE update: 5 hours ago

TLE from 5 hours ago
0 POSAT 1
1 22829U 93061G   26255.91341786  .00000055  00000-0  37157-4 0  9998
2 22829  98.6578 322.8420 0010617 128.0052 232.2092 14.31937070720602
Epoch: 2026-09-12T21:55Z
TLE epoch observation values (Epoch: 2026-09-12T21:55:19.303Z)
Latitude
0.00006°
Longitude
2.09596°
Altitude
792.862 km
Speed
7.455 km/s
True Right ascension
21h 31m 22s
True Declination
0° 00' 00"
Sunlit
Object was in full shadow at epoch
Visualization orbit readout
Latitude
Unknown
Longitude
Unknown
Altitude
Unknown
Speed
Unknown
Apparent Right ascension
Unknown
Apparent Declination
Unknown
Sunlit
N/A
Visualization observer readout
Local Sidereal Time
19:49:12
Azimuth
Unknown
Elevation
Unknown
Doppler factor
Unknown
Orbital elements
Apogee altitude
790.006 km
Perigee altitude
774.801 km
Semi-major axis
7,160.54 km
Eccentricity
0.00106
Inclination
98.6578°
RAAN
322.842°
Arg. of periapsis
128.0052°
True anomaly
232.11313°
Mean anomaly
232.2092°
Eccentric anomaly
232.16116°
Mean motion
3.58199 °/min
Orbital period
100.5 mins
BSTAR
0.000037157
Loading maneuver chart data...
Computing Atmospheric mass density...
Loading historical data...
Loading historical data...
Loading historical data...
Loading historical data...
Loading historical data...
Loading historical data...
Loading historical data...

Documentation

Showing up to 5 results
|